Wind_Speed
5 5 5 5 5 4 4 4 4 4 4 5 5 6 6 5 5 5 5 4 4 4 4 4 4 5 5 5 5 6 6 6 7 7 7 7 8 8 7 7 7 8 8
5 5 5 4 4 3 3 3 4 4 4 5 6 6 6 6 6 6 5 5 5 5 5 5 6 6 6 6 6 7 7 7 8 8 8 8 9 9 8 9 9 9 9
4 4 4 3 3 3 3 4 4 4 4 5 6 6 6 6 7 6 6 6 6 6 6 7 7 7 7 8 8 9 9 9 9 10 10 10 10 10 10 10 10 11 11
3 3 3 3 3 4 4 5 5 4 5 5 5 5 6 7 7 7 7 7 7 7 7 7 8 8 9 9 10 10 11 11 10 10 10 11 11 11 11 12 12 12 12
2 2 3 3 3 4 4 5 5 5 5 6 6 5 6 7 8 7 8 8 8 8 8 9 9 9 10 10 11 12 12 12 12 12 12 12 12 13 12 13 13 13 13
1 2 2 2 3 4 5 5 6 6 7 7 7 7 7 8 8 8 8 9 9 9 9 10 10 11 11 11 12 12 12 13 13 14 14 14 14 14 14 14 14 14 15
1 2 3 3 4 4 5 6 7 7 8 8 8 8 8 9 9 9 9 10 10 11 11 11 11 11 12 12 13 13 13 13 14 14 14 15 15 15 15 14 14 15 16
1 1 2 3 4 5 6 6 7 7 7 8 9 9 9 10 10 10 10 10 11 10 10 11 11 12 12 13 13 13 14 14 15 15 15 15 16 15 15 15 16 16 16
3 3 3 4 5 6 6 6 7 8 8 9 10 10 10 10 11 11 11 11 11 11 11 11 11 12 12 13 14 14 14 14 15 16 16 16 16 16 16 17 17 17 17
3 3 4 4 4 6 6 6 6 7 8 9 10 10 11 11 11 11 12 12 12 12 12 12 13 13 13 14 14 14 14 14 15 15 16 16 16 17 17 17 18 18 18
3 3 4 5 5 5 5 6 7 7 8 8 8 9 11 12 12 12 13 13 13 13 13 13 14 14 14 15 15 15 15 15 15 15 16 17 17 17 17 18 18 18 19
4 4 4 5 5 5 5 6 7 7 7 8 8 9 10 12 12 12 13 13 14 14 14 14 14 14 15 16 16 16 16 16 16 16 17 17 17 18 17 17 18 18 19
5 5 5 6 6 7 6 7 7 8 8 8 9 10 11 11 12 13 13 14 14 14 14 15 15 15 16 16 17 17 17 17 17 17 17 17 17 18 18 19 19 19 20
7 7 7 8 8 8 8 8 8 8 9 9 10 11 11 12 12 13 14 15 14 14 14 15 16 17 17 16 17 18 17 17 17 18 18 18 18 19 19 20 20 20 21
8 9 9 10 10 10 10 9 10 10 10 11 11 12 13 13 13 14 15 15 16 16 16 16 16 17 17 17 17 17 17 18 18 18 19 19 19 20 20 21 21 21 22
10 11 11 11 11 11 12 12 12 12 13 13 14 14 15 15 14 14 15 15 15 15 15 16 17 17 18 17 17 17 18 19 19 19 19 20 21 20 21 21 22 23 23
13 13 14 13 13 13 13 14 15 15 15 15 15 15 16 16 16 16 17 16 16 16 16 16 17 18 18 18 18 19 19 20 20 20 21 21 21 21 22 23 23 24 24
15 15 16 15 15 15 15 16 16 16 17 17 17 17 17 16 16 17 17 17 17 18 18 18 19 19 20 20 20 20 20 20 21 22 22 22 22 23 23 24 24 25 25
18 18 18 18 18 18 18 18 18 18 18 18 18 19 19 19 19 19 18 19 19 20 20 20 21 21 21 22 22 22 23 23 23 23 23 24 24 24 24 25 25 25 25
21 20 20 20 20 21 21 21 21 21 20 20 20 21 21 21 20 20 19 19 20 21 22 22 22 22 23 24 24 24 25 25 25 25 25 25 25 25 25 25 25 25 26
22 22 21 21 22 22 23 23 24 23 23 23 23 23 23 22 22 22 22 22 22 22 23 24 24 24 24 25 25 26 26 26 27 27 27 28 28 28 27 27 27 27 27
24 23 23 24 24 24 25 25 25 25 25 25 25 25 24 24 24 24 24 24 24 24 24 25 26 26 26 26 27 28 28 28 28 28 29 29 29 29 29 29 29 30 30
26 26 26 26 26 25 25 26 26 27 27 27 27 27 27 26 26 26 26 26 26 26 26 26 27 28 28 28 29 29 29 30 30 30 30 31 32 32 32 31 31 31 32
30 30 29 28 28 28 28 27 28 28 28 28 27 28 28 29 29 29 29 29 29 29 29 28 28 29 30 30 29 30 30 31 31 31 32 32 33 33 33 33 33 33 33
32 32 32 31 30 30 31 30 30 29 29 28 28 29 30 30 31 32 32 32 32 32 32 31 30 30 30 30 30 30 30 31 31 32 33 33 33 34 35 35 35 35 35
33 33 33 33 33 32 32 32 32 31 30 30 30 31 32 33 33 34 33 32 32 33 33 33 32 32 31 31 31 31 32 32 32 32 33 34 35 35 35 35 36 36 36
Wind_Direction
152 161 161 159 160 158 168 173 176 193 200 200 199 200 211 218 213 210 205 209 219 231 235 241 243 242 244 254 258 260 265 269 270 266 264 267 264 266 264 263 265 266 266
153 165 163 163 170 171 183 195 201 205 208 211 212 214 217 219 218 214 214 218 228 238 244 247 255 256 255 259 262 264 268 270 272 271 270 267 267 266 267 265 269 268 269
152 166 171 185 195 197 202 205 208 213 216 218 221 226 227 229 226 226 226 225 235 244 249 255 260 260 260 262 265 268 270 271 274 273 272 269 268 267 268 267 268 270 270
152 171 189 203 216 218 219 222 219 224 229 229 230 233 234 234 234 238 240 240 246 251 253 258 262 263 263 265 267 268 270 271 273 274 274 269 267 268 268 267 270 271 270
155 178 206 215 221 223 228 232 232 236 239 237 241 245 242 238 240 245 249 250 253 255 257 259 264 265 267 268 269 271 273 272 276 275 274 272 269 268 268 268 270 271 271
172 192 214 225 230 230 233 238 238 246 248 245 247 248 248 246 249 253 254 256 259 258 261 263 264 266 268 270 272 274 277 278 279 278 275 273 270 269 269 270 270 272 272
205 216 233 246 250 251 245 246 250 249 250 247 251 252 250 250 251 256 256 259 266 266 266 269 272 275 276 273 273 274 276 277 280 281 277 273 271 271 271 271 273 273 273
350 274 244 256 262 259 253 253 257 249 250 249 252 254 255 254 254 257 259 264 269 269 269 274 277 279 279 276 276 275 275 278 281 283 280 275 274 274 274 274 274 274 275
19 350 318 291 283 265 257 257 257 251 256 256 255 254 256 258 257 260 263 265 266 268 272 275 277 279 280 281 280 280 279 280 280 280 279 277 274 274 274 274 272 273 273
357 332 320 316 299 273 263 266 257 256 261 260 257 257 260 260 260 262 263 264 266 268 270 272 275 279 281 282 284 281 281 282 283 281 278 279 278 276 275 275 275 274 275
340 322 317 318 309 289 275 271 262 263 264 262 262 264 264 264 263 266 265 267 268 270 273 273 275 278 280 280 282 282 281 282 284 283 279 278 281 280 277 275 275 273 274
333 327 319 313 305 294 282 276 271 271 269 268 267 269 270 270 267 265 264 267 270 272 274 274 277 279 281 280 280 281 282 281 282 283 282 280 279 279 278 277 275 275 273
316 317 318 313 302 291 285 283 274 269 268 271 271 270 271 273 273 269 269 272 273 274 275 275 277 280 285 284 281 281 282 281 280 281 281 278 279 277 276 278 278 277 275
303 305 309 309 305 295 287 284 280 274 272 274 275 275 277 275 273 270 272 273 274 277 279 276 276 279 282 285 283 282 284 282 281 281 280 279 279 279 277 277 278 277 277
298 300 301 304 304 297 290 284 281 280 278 277 277 279 280 276 276 275 274 274 275 277 279 279 278 278 280 282 282 282 283 282 282 282 281 280 279 279 278 277 276 276 277
289 292 293 297 300 297 289 284 280 279 284 282 278 279 278 276 277 277 276 275 277 278 277 277 279 279 279 280 281 282 284 281 281 282 282 282 282 281 280 278 277 275 275
282 286 285 288 290 291 290 286 283 280 282 282 282 282 280 281 281 279 277 275 276 276 275 275 279 281 283 281 281 283 283 282 281 281 282 283 281 280 281 280 280 278 277
279 282 284 286 288 289 289 286 285 282 282 282 281 282 283 281 281 282 279 277 276 276 275 275 276 278 280 281 281 283 284 284 282 282 282 281 281 279 281 280 279 281 280
277 278 279 282 285 286 286 285 284 283 282 282 282 282 282 280 280 280 279 279 278 278 278 277 275 276 277 279 279 281 282 282 281 282 282 282 282 281 282 281 278 279 280
272 273 275 277 280 283 285 284 283 283 282 283 284 284 285 282 279 279 281 282 281 279 278 278 278 278 278 279 279 280 281 281 280 281 281 281 281 282 283 282 280 280 279
271 273 274 275 276 278 282 283 281 281 281 281 282 282 281 281 280 279 279 280 281 281 281 280 280 279 280 280 280 280 280 281 280 279 280 279 280 281 282 282 281 281 280
272 272 273 275 275 276 279 282 280 278 279 280 280 280 279 278 278 278 280 280 281 281 282 283 283 281 280 281 281 279 278 279 280 280 279 279 279 280 281 282 282 282 282
271 272 272 275 276 277 279 281 280 277 277 279 278 278 279 279 277 278 279 279 279 280 281 282 281 281 281 283 282 280 279 279 279 280 280 280 280 280 281 281 282 282 283
272 272 272 274 276 275 276 279 281 279 277 278 278 278 278 278 278 277 278 278 279 279 280 281 281 281 280 281 282 283 282 281 281 280 280 281 281 281 282 282 282 282 282
272 273 274 276 275 273 274 277 277 277 276 277 277 277 277 278 276 277 277 278 278 279 278 280 280 281 281 282 282 283 283 283 282 281 280 281 281 281 281 281 281 282 282
273 274 276 276 276 272 272 274 275 274 275 276 276 276 276 276 278 278 276 276 277 278 278 279 279 280 281 282 282 283 282 282 283 283 282 282 282 281 281 280 281 281 281
Height
5878 5879 5880 5881 5881 5882 5883 5884 5885 5886 5887 5888 5889 5890 5891 5891 5892 5893 5894 5894 5895 5896 5896 5897 5897 5898 5898 5898 5898 5899 5899 5899 5899 5899 5899 5899 5899 5899 5899 5900 5900 5900 5900
5878 5879 5880 5881 5882 5883 5883 5884 5885 5886 5887 5888 5889 5890 5890 5891 5892 5892 5893 5894 5894 5895 5895 5896 5896 5897 5897 5897 5897 5897 5897 5898 5898 5898 5898 5898 5898 5898 5898 5898 5898 5898 5898
5879 5880 5880 5881 5882 5883 5883 5884 5885 5886 5887 5887 5888 5889 5889 5890 5891 5892 5892 5893 5894 5894 5895 5895 5895 5896 5896 5896 5896 5896 5896 5896 5896 5896 5896 5896 5896 5896 5896 5896 5896 5896 5896
5879 5880 5880 5881 5882 5882 5883 5884 5884 5885 5886 5886 5887 5888 5888 5889 5890 5891 5891 5892 5893 5893 5893 5894 5894 5894 5894 5894 5894 5894 5894 5894 5894 5893 5893 5893 5893 5893 5893 5894 5894 5894 5894
5879 5880 5880 5881 5881 5882 5882 5883 5883 5884 5885 5885 5886 5887 5887 5888 5889 5889 5890 5891 5891 5891 5892 5892 5892 5892 5892 5892 5892 5892 5892 5892 5892 5891 5891 5891 5891 5891 5891 5891 5891 5891 5891
5879 5880 5880 5880 5881 5881 5882 5882 5882 5883 5883 5884 5885 5886 5886 5887 5888 5888 5889 5889 5889 5890 5890 5890 5890 5889 5889 5889 5889 5889 5889 5889 5889 5888 5888 5888 5888 5888 5888 5888 5888 5888 5887
5879 5879 5880 5880 5880 5880 5880 5881 5881 5882 5882 5883 5883 5884 5885 5885 5886 5886 5887 5887 5887 5887 5888 5887 5887 5887 5887 5887 5887 5887 5886 5886 5886 5885 5885 5885 5885 5884 5884 5884 5884 5884 5884
5879 5879 5879 5879 5879 5879 5879 5879 5880 5880 5880 5881 5882 5882 5883 5884 5884 5884 5884 5885 5885 5885 5885 5885 5885 5885 5884 5884 5884 5884 5884 5883 5883 5882 5882 5882 5882 5882 5881 5881 5881 5880 5880
5879 5879 5878 5878 5878 5878 5878 5878 5878 5878 5879 5879 5880 5880 5881 5881 5881 5882 5882 5882 5882 5882 5882 5882 5882 5882 5881 5881 5881 5880 5880 5880 5880 5879 5878 5878 5878 5878 5877 5877 5877 5876 5876
5879 5879 5878 5877 5876 5876 5876 5876 5876 5877 5877 5877 5877 5878 5879 5879 5879 5879 5879 5879 5879 5879 5879 5879 5879 5879 5878 5878 5878 5877 5877 5877 5876 5875 5875 5875 5874 5874 5873 5873 5873 5872 5872
5879 5878 5878 5877 5876 5875 5875 5875 5875 5875 5875 5875 5875 5875 5876 5876 5876 5876 5876 5877 5877 5877 5877 5876 5876 5876 5875 5875 5874 5874 5873 5873 5872 5872 5871 5871 5870 5870 5869 5869 5869 5868 5868
5879 5878 5877 5876 5875 5874 5874 5873 5873 5873 5873 5873 5873 5873 5873 5873 5873 5873 5873 5873 5873 5874 5873 5873 5873 5872 5871 5871 5870 5870 5869 5869 5868 5868 5867 5867 5866 5866 5865 5865 5864 5864 5863
5878 5877 5876 5875 5874 5873 5873 5872 5872 5871 5871 5871 5871 5871 5870 5870 5870 5870 5870 5870 5870 5870 5869 5869 5869 5868 5868 5867 5866 5866 5865 5864 5864 5864 5863 5863 5862 5861 5861 5860 5860 5859 5858
5877 5876 5875 5874 5873 5872 5871 5871 5870 5870 5869 5868 5868 5868 5867 5867 5867 5866 5866 5866 5866 5866 5866 5865 5865 5864 5864 5863 5862 5862 5861 5860 5860 5859 5859 5858 5857 5857 5856 5855 5854 5854 5853
5875 5875 5874 5872 5871 5870 5869 5869 5868 5868 5867 5866 5865 5865 5864 5863 5863 5863 5863 5862 5863 5862 5862 5861 5860 5860 5859 5858 5858 5857 5857 5856 5855 5855 5854 5853 5852 5852 5851 5850 5849 5849 5848
5873 5872 5872 5870 5869 5868 5867 5866 5866 5865 5864 5863 5862 5861 5861 5860 5859 5859 5858 5858 5858 5858 5858 5857 5856 5855 5855 5854 5853 5852 5852 5851 5851 5850 5849 5848 5847 5846 5845 5845 5843 5843 5842
5869 5869 5868 5867 5866 5865 5864 5863 5863 5862 5861 5860 5859 5858 5857 5856 5856 5855 5855 5854 5853 5853 5853 5853 5852 5851 5850 5849 5849 5848 5847 5846 5845 5844 5843 5842 5841 5841 5840 5839 5838 5836 5835
5865 5865 5864 5864 5863 5862 5861 5859 5859 5858 5857 5856 5855 5854 5853 5852 5852 5851 5850 5849 5849 5849 5848 5848 5847 5846 5845 5844 5843 5842 5841 5840 5839 5838 5837 5836 5835 5834 5833 5832 5831 5830 5829
5861 5860 5860 5859 5858 5858 5857 5856 5854 5853 5852 5851 5850 5849 5848 5848 5847 5846 5845 5844 5844 5843 5843 5842 5841 5840 5839 5839 5838 5837 5835 5834 5833 5832 5831 5830 5829 5828 5827 5826 5825 5824 5823
5855 5855 5854 5853 5853 5852 5851 5851 5850 5849 5847 5846 5845 5844 5843 5842 5842 5841 5840 5839 5838 5837 5837 5836 5835 5834 5833 5832 5831 5830 5829 5828 5827 5826 5824 5823 5822 5821 5820 5819 5818 5817 5816
5848 5848 5848 5847 5846 5846 5845 5844 5843 5842 5841 5840 5839 5838 5837 5836 5836 5835 5834 5833 5832 5831 5830 5829 5829 5827 5826 5825 5824 5823 5822 5821 5819 5818 5817 5816 5815 5814 5813 5812 5810 5809 5808
5841 5841 5841 5840 5840 5839 5838 5837 5836 5835 5834 5833 5833 5832 5831 5830 5829 5828 5828 5827 5826 5825 5823 5822 5821 5820 5819 5818 5816 5815 5814 5813 5812 5811 5809 5808 5807 5806 5805 5804 5803 5801 5800
5833 5833 5833 5833 5833 5832 5831 5830 5829 5828 5827 5827 5826 5825 5824 5823 5821 5821 5820 5819 5819 5817 5816 5815 5814 5813 5811 5810 5808 5807 5805 5804 5803 5802 5801 5800 5799 5798 5796 5795 5794 5792 5791
5825 5825 5824 5824 5824 5824 5823 5822 5821 5820 5819 5819 5818 5817 5816 5815 5814 5813 5812 5811 5810 5809 5808 5807 5805 5804 5803 5801 5799 5798 5797 5796 5795 5793 5792 5791 5789 5788 5787 5786 5785 5783 5781
5816 5815 5815 5815 5815 5815 5815 5814 5813 5812 5811 5810 5810 5809 5808 5807 5806 5804 5803 5803 5802 5801 5799 5798 5797 5795 5794 5792 5790 5789 5788 5786 5785 5784 5782 5781 5780 5778 5777 5776 5774 5773 5771
5807 5807 5806 5806 5806 5806 5805 5804 5803 5803 5802 5802 5801 5800 5799 5798 5797 5795 5794 5793 5793 5792 5790 5789 5788 5787 5785 5783 5782 5780 5779 5777 5776 5775 5773 5772 5770 5768 5767 5766 5764 5763 5761